Overview Statistics Trail Chart Weather Telemetry Raw packets
 

This is the latest recevied weather packets stored in our database for station/object N7IGG. If no packets are shown the sender has not sent any weather packets the latest 10 day(s).

<< 84 85 86 87 88 89 90 >>
Time Temp. Humidity Pressure Rain* Wind** Luminosity Snow
1777565094 11.11° C 93% 1021.6 hPa 0 mm - 70 W/m² -
1777564789 11.11° C 93% 1021.5 hPa 0 mm - 70 W/m² -
1777564484 11.11° C 93% 1021.5 hPa 0 mm - 70 W/m² -
1777564180 10.56° C 93% 1021.7 hPa 0 mm - 78 W/m² -
1777563877 10.56° C 94% 1021.5 hPa 0 mm - 110 W/m² -
1777563573 10.56° C 94% 1021.7 hPa 0 mm - 69 W/m² -
1777563273 10.56° C 94% 1021.5 hPa 0 mm - 78 W/m² -
1777562970 10.56° C 93% 1021.7 hPa 0 mm - 94 W/m² -
1777562666 10.56° C 93% 1021.6 hPa 0 mm - 99 W/m² -
1777562365 10° C 93% 1021.9 hPa 0 mm - 164 W/m² -
1777562061 10° C 93% 1021.8 hPa 0 mm - 89 W/m² -
1777561759 10° C 93% 1021.6 hPa 0 mm - 59 W/m² -
1777561454 10° C 93% 1021.9 hPa 0 mm - 55 W/m² -
1777561149 10° C 93% 1021.8 hPa 0 mm - 51 W/m² -
1777560844 10° C 93% 1022 hPa 0 mm - 50 W/m² -
1777560542 10° C 93% 1021.9 hPa 0 mm - 46 W/m² -
1777560240 9.44° C 93% 1022.1 hPa 0 mm - 45 W/m² -
1777559936 9.44° C 93% 1021.9 hPa 0 mm - 42 W/m² -
1777559631 9.44° C 93% 1021.8 hPa 0 mm - 38 W/m² -
1777559330 9.44° C 93% 1021.9 hPa 0 mm - 38 W/m² -
1777559025 9.44° C 93% 1021.8 hPa 0 mm - 34 W/m² -
1777558721 9.44° C 93% 1021.8 hPa 0 mm - 32 W/m² -
1777558417 9.44° C 93% 1021.9 hPa 0 mm - 29 W/m² -
1777558113 8.89° C 93% 1021.8 hPa 0 mm - 26 W/m² -
1777557810 8.89° C 93% 1021.7 hPa 0 mm - 23 W/m² -

* Rain latest hour (hover to see other rain measurements)
** Current wind speed in m/s (hover to see current wind gust speed)